| time (UTC) | temp C | wind direction | speed KPH | gust KPH | rain 1hr cm | rain 24hr cm | rain mn cm | humidity % | barometer mb |
| 20260903062403 | 13 | 201 | 1.6 | 6.4 | 0.00 | 0.00 | 0.00 | 81 | 1014.5 |
| 20260903061803 | 13 | 201 | 3.2 | 6.4 | 0.00 | 0.00 | 0.00 | 80 | 1014.5 |
| 20260903061203 | 13 | 201 | 1.6 | 6.4 | 0.00 | 0.00 | 0.00 | 80 | 1014.3 |
| 20260903060816 | 13 | 201 | 0.0 | 6.4 | 0.00 | 0.00 | 0.00 | 80 | 1014.3 |
| 20260903060003 | 13 | 201 | 0.0 | 3.2 | 0.00 | 0.00 | 0.00 | 80 | 1014.6 |
| 20260903055403 | 13 | 201 | 0.0 | 4.8 | 0.00 | 0.00 | 0.00 | 79 | 1014.7 |
| 20260903054803 | 13 | 201 | 1.6 | 4.8 | 0.00 | 0.00 | 0.00 | 79 | 1014.7 |
| 20260903054203 | 13 | 201 | 1.6 | 8.0 | 0.00 | 0.00 | 0.00 | 79 | 1014.8 |
| 20260903053603 | 13 | 201 | 0.0 | 4.8 | 0.00 | 0.00 | 0.00 | 78 | 1014.8 |
| 20260903053218 | 13 | 201 | 0.0 | 4.8 | 0.00 | 0.00 | 0.00 | 78 | 1014.9 |
| 20260903052617 | 13 | 201 | 0.0 | 4.8 | 0.00 | 0.00 | 0.00 | 78 | 1014.9 |
| 20260903051804 | 14 | 201 | 0.0 | 3.2 | 0.00 | 0.00 | 0.00 | 78 | 1014.7 |
| 20260903051203 | 14 | 201 | 0.0 | 3.2 | 0.00 | 0.00 | 0.00 | 77 | 1014.8 |
| 20260903050603 | 14 | 201 | 0.0 | 3.2 | 0.00 | 0.00 | 0.00 | 77 | 1014.8 |
| 20260903050003 | 14 | 201 | 0.0 | 3.2 | 0.00 | 0.00 | 0.00 | 77 | 1015.0 |
| 20260903045403 | 14 | 201 | 0.0 | 3.2 | 0.00 | 0.00 | 0.00 | 76 | 1015.0 |
| 20260903044803 | 14 | 201 | 0.0 | 3.2 | 0.00 | 0.00 | 0.00 | 76 | 1015.0 |
| 20260903044418 | 14 | 201 | 0.0 | 4.8 | 0.00 | 0.00 | 0.00 | 75 | 1015.0 |
| 20260903043818 | 14 | 201 | 0.0 | 6.4 | 0.00 | 0.00 | 0.00 | 75 | 1015.0 |
| 20260903043003 | 14 | 201 | 0.0 | 4.8 | 0.00 | 0.00 | 0.00 | 75 | 1014.9 |
| 20260903042403 | 15 | 201 | 0.0 | 3.2 | 0.00 | 0.00 | 0.00 | 75 | 1014.9 |
| 20260903041804 | 15 | 201 | 0.0 | 3.2 | 0.00 | 0.00 | 0.00 | 74 | 1014.9 |
| 20260903041204 | 15 | 201 | 0.0 | 3.2 | 0.00 | 0.00 | 0.00 | 74 | 1014.8 |
| 20260903040604 | 15 | 201 | 0.0 | 3.2 | 0.00 | 0.00 | 0.00 | 74 | 1014.7 |
| 20260903040004 | 15 | 201 | 0.0 | 3.2 | 0.00 | 0.00 | 0.00 | 74 | 1014.9 |
| 20260903035403 | 15 | 0 | 0.0 | 0.0 | 0.00 | 0.00 | 0.00 | 73 | 1014.8 |
| 20260903034804 | 15 | 0 | 0.0 | 0.0 | 0.00 | 0.00 | 0.00 | 73 | 1014.7 |
| 20260903034203 | 15 | 0 | 0.0 | 0.0 | 0.00 | 0.00 | 0.00 | 73 | 1014.7 |
| 20260903033818 | 15 | 0 | 0.0 | 0.0 | 0.00 | 0.00 | 0.00 | 73 | 1014.6 |
| 20260903033003 | 15 | 0 | 0.0 | 0.0 | 0.00 | 0.00 | 0.00 | 73 | 1014.6 |
| 20260903032403 | 15 | 201 | 0.0 | 3.2 | 0.00 | 0.00 | 0.00 | 73 | 1014.5 |
| 20260903031803 | 15 | 201 | 0.0 | 3.2 | 0.00 | 0.00 | 0.00 | 72 | 1014.5 |
| 20260903031204 | 15 | 201 | 1.6 | 6.4 | 0.00 | 0.00 | 0.00 | 72 | 1014.2 |
| 20260903030603 | 16 | 205 | 1.6 | 9.7 | 0.00 | 0.00 | 0.00 | 72 | 1014.1 |
| 20260903030004 | 16 | 221 | 0.0 | 9.7 | 0.00 | 0.00 | 0.00 | 71 | 1014.5 |
| 20260903025404 | 16 | 248 | 0.0 | 3.2 | 0.00 | 0.00 | 0.00 | 71 | 1014.5 |
| 20260903024803 | 16 | 0 | 0.0 | 0.0 | 0.00 | 0.00 | 0.00 | 70 | 1014.3 |
| 20260903024203 | 16 | 248 | 0.0 | 1.6 | 0.00 | 0.00 | 0.00 | 70 | 1014.4 |
| 20260903023604 | 16 | 248 | 0.0 | 6.4 | 0.00 | 0.00 | 0.00 | 70 | 1014.4 |
| 20260903023003 | 16 | 248 | 0.0 | 6.4 | 0.00 | 0.00 | 0.00 | 69 | 1014.5 |
| 20260903022403 | 16 | 248 | 0.0 | 4.8 | 0.00 | 0.00 | 0.00 | 69 | 1014.6 |
| 20260903021803 | 17 | 247 | 1.6 | 8.0 | 0.00 | 0.00 | 0.00 | 68 | 1014.6 |
| 20260903021203 | 17 | 247 | 1.6 | 8.0 | 0.00 | 0.00 | 0.00 | 67 | 1014.6 |
| 20260903020817 | 17 | 248 | 0.0 | 6.4 | 0.00 | 0.00 | 0.00 | 67 | 1014.6 |
| 20260903020004 | 17 | 230 | 0.0 | 8.0 | 0.00 | 0.00 | 0.00 | 66 | 1014.6 |
| 20260903015403 | 17 | 233 | 3.2 | 14.5 | 0.00 | 0.00 | 0.00 | 65 | 1014.5 |
| 20260903014803 | 17 | 236 | 3.2 | 14.5 | 0.00 | 0.00 | 0.00 | 64 | 1014.6 |
| 20260903014203 | 17 | 227 | 1.6 | 9.7 | 0.00 | 0.00 | 0.00 | 63 | 1014.6 |
| 20260903013603 | 17 | 222 | 3.2 | 9.7 | 0.00 | 0.00 | 0.00 | 63 | 1014.7 |
| 20260903013003 | 18 | 232 | 4.8 | 16.1 | 0.00 | 0.00 | 0.00 | 62 | 1014.7 |
| 20260903012403 | 18 | 238 | 4.8 | 19.3 | 0.00 | 0.00 | 0.00 | 62 | 1014.7 |
| 20260903011803 | 18 | 238 | 3.2 | 11.3 | 0.00 | 0.00 | 0.00 | 62 | 1014.7 |
| 20260903011203 | 18 | 233 | 3.2 | 14.5 | 0.00 | 0.00 | 0.00 | 62 | 1014.7 |
| 20260903010603 | 18 | 228 | 3.2 | 14.5 | 0.00 | 0.00 | 0.00 | 62 | 1014.8 |
| 20260903010003 | 18 | 218 | 3.2 | 14.5 | 0.00 | 0.00 | 0.00 | 61 | 1014.7 |
| 20260903005403 | 18 | 226 | 4.8 | 14.5 | 0.00 | 0.00 | 0.00 | 61 | 1014.6 |
| 20260903004803 | 18 | 217 | 6.4 | 19.3 | 0.00 | 0.00 | 0.00 | 60 | 1014.6 |
| 20260903004203 | 18 | 219 | 6.4 | 22.5 | 0.00 | 0.00 | 0.00 | 59 | 1014.6 |
| 20260903003603 | 18 | 219 | 6.4 | 24.1 | 0.00 | 0.00 | 0.00 | 60 | 1014.7 |
| 20260903003003 | 18 | 218 | 6.4 | 19.3 | 0.00 | 0.00 | 0.00 | 60 | 1014.6 |
| 20260903002403 | 18 | 209 | 8.0 | 22.5 | 0.00 | 0.00 | 0.00 | 59 | 1014.8 |
| 20260903002017 | 18 | 225 | 6.4 | 22.5 | 0.00 | 0.00 | 0.00 | 60 | 1014.8 |
| 20260903001203 | 18 | 239 | 3.2 | 14.5 | 0.00 | 0.00 | 0.00 | 60 | 1014.8 |
| 20260903000603 | 18 | 226 | 4.8 | 20.9 | 0.00 | 0.00 | 0.00 | 60 | 1014.8 |
| 20260903000003 | 18 | 236 | 6.4 | 22.5 | 0.00 | 0.00 | 0.00 | 60 | 1014.8 |
| 20260902235403 | 18 | 236 | 6.4 | 22.5 | 0.00 | 0.00 | 0.00 | 61 | 1014.7 |
| 20260902234803 | 18 | 244 | 4.8 | 20.9 | 0.00 | 0.00 | 0.00 | 60 | 1014.8 |
| 20260902234203 | 18 | 251 | 6.4 | 27.4 | 0.00 | 0.00 | 0.00 | 60 | 1014.8 |
| 20260902233603 | 18 | 231 | 8.0 | 27.4 | 0.00 | 0.00 | 0.00 | 60 | 1014.8 |
| 20260902233004 | 18 | 223 | 8.0 | 24.1 | 0.00 | 0.00 | 0.00 | 60 | 1014.9 |
| 20260902232403 | 18 | 229 | 6.4 | 19.3 | 0.00 | 0.00 | 0.00 | 60 | 1014.9 |
| 20260902231803 | 18 | 241 | 8.0 | 25.7 | 0.00 | 0.00 | 0.00 | 60 | 1014.9 |
| 20260902231203 | 18 | 235 | 8.0 | 25.7 | 0.00 | 0.00 | 0.00 | 61 | 1015.0 |
| 20260902230603 | 18 | 215 | 4.8 | 20.9 | 0.00 | 0.00 | 0.00 | 62 | 1015.0 |
| 20260902230004 | 18 | 215 | 3.2 | 16.1 | 0.00 | 0.00 | 0.00 | 62 | 1015.1 |
| 20260902225617 | 18 | 247 | 4.8 | 16.1 | 0.00 | 0.00 | 0.00 | 61 | 1015.1 |
| 20260902224803 | 18 | 229 | 9.7 | 27.4 | 0.00 | 0.00 | 0.00 | 61 | 1015.2 |
| 20260902224418 | 18 | 224 | 8.0 | 22.5 | 0.00 | 0.00 | 0.00 | 61 | 1015.1 |
| 20260902223603 | 18 | 247 | 8.0 | 25.7 | 0.00 | 0.00 | 0.00 | 60 | 1015.2 |
| 20260902223003 | 18 | 215 | 8.0 | 22.5 | 0.00 | 0.00 | 0.00 | 61 | 1015.1 |
| 20260902222403 | 18 | 221 | 8.0 | 22.5 | 0.00 | 0.00 | 0.00 | 62 | 1015.1 |
| 20260902221803 | 18 | 234 | 3.2 | 20.9 | 0.00 | 0.00 | 0.00 | 62 | 1015.2 |
| 20260902221203 | 18 | 258 | 3.2 | 14.5 | 0.00 | 0.00 | 0.00 | 62 | 1015.2 |
| 20260902220603 | 18 | 236 | 6.4 | 20.9 | 0.00 | 0.00 | 0.00 | 61 | 1015.3 |
| 20260902220003 | 18 | 218 | 8.0 | 20.9 | 0.00 | 0.00 | 0.00 | 61 | 1015.3 |
| 20260902215617 | 18 | 215 | 6.4 | 20.9 | 0.00 | 0.00 | 0.00 | 60 | 1015.2 |
| 20260902214803 | 18 | 214 | 6.4 | 20.9 | 0.00 | 0.00 | 0.00 | 60 | 1015.3 |
| 20260902214203 | 18 | 234 | 4.8 | 22.5 | 0.00 | 0.00 | 0.00 | 61 | 1015.2 |
| 20260902213817 | 18 | 237 | 4.8 | 22.5 | 0.00 | 0.00 | 0.00 | 60 | 1015.4 |
| 20260902213003 | 18 | 242 | 6.4 | 25.7 | 0.00 | 0.00 | 0.00 | 60 | 1015.4 |
| 20260902212403 | 18 | 219 | 3.2 | 22.5 | 0.00 | 0.00 | 0.00 | 61 | 1015.4 |
| 20260902211803 | 18 | 208 | 6.4 | 20.9 | 0.00 | 0.00 | 0.00 | 59 | 1015.4 |
| 20260902211418 | 18 | 206 | 8.0 | 20.9 | 0.00 | 0.00 | 0.00 | 59 | 1015.4 |
| 20260902210603 | 18 | 216 | 8.0 | 19.3 | 0.00 | 0.00 | 0.00 | 60 | 1015.6 |
| 20260902210003 | 18 | 231 | 8.0 | 24.1 | 0.00 | 0.00 | 0.00 | 61 | 1015.4 |
| 20260902205403 | 18 | 233 | 6.4 | 24.1 | 0.00 | 0.00 | 0.00 | 60 | 1015.4 |
| 20260902204803 | 18 | 219 | 6.4 | 24.1 | 0.00 | 0.00 | 0.00 | 59 | 1015.4 |
| 20260902204203 | 18 | 228 | 6.4 | 24.1 | 0.00 | 0.00 | 0.00 | 58 | 1015.4 |
| 20260902203603 | 18 | 234 | 4.8 | 19.3 | 0.00 | 0.00 | 0.00 | 57 | 1015.4 |
| 20260902203003 | 18 | 210 | 3.2 | 22.5 | 0.00 | 0.00 | 0.00 | 58 | 1015.3 |
| 20260902202403 | 18 | 212 | 4.8 | 22.5 | 0.00 | 0.00 | 0.00 | 60 | 1015.4 |
| 20260902201804 | 17 | 195 | 3.2 | 16.1 | 0.00 | 0.00 | 0.00 | 60 | 1015.7 |
| 20260902201203 | 17 | 171 | 3.2 | 22.5 | 0.00 | 0.00 | 0.00 | 60 | 1015.8 |
| 20260902200817 | 17 | 199 | 3.2 | 22.5 | 0.00 | 0.00 | 0.00 | 59 | 1015.8 |
| 20260902200003 | 17 | 194 | 4.8 | 14.5 | 0.00 | 0.00 | 0.00 | 61 | 1015.9 |
| 20260902195403 | 17 | 174 | 3.2 | 16.1 | 0.00 | 0.00 | 0.00 | 59 | 1015.8 |
| 20260902194803 | 17 | 192 | 3.2 | 16.1 | 0.00 | 0.00 | 0.00 | 59 | 1015.7 |
| 20260902194203 | 17 | 187 | 3.2 | 16.1 | 0.00 | 0.00 | 0.00 | 59 | 1016.1 |
| 20260902193603 | 16 | 187 | 4.8 | 16.1 | 0.00 | 0.00 | 0.00 | 59 | 1016.3 |
| 20260902193003 | 16 | 193 | 3.2 | 16.1 | 0.00 | 0.00 | 0.00 | 62 | 1016.3 |
| 20260902192403 | 16 | 233 | 1.6 | 6.4 | 0.00 | 0.00 | 0.00 | 61 | 1016.6 |
| 20260902191803 | 16 | 198 | 3.2 | 11.3 | 0.00 | 0.00 | 0.00 | 60 | 1016.7 |
| 20260902191203 | 16 | 216 | 3.2 | 14.5 | 0.00 | 0.00 | 0.00 | 61 | 1016.6 |
| 20260902190819 | 16 | 198 | 3.2 | 14.5 | 0.00 | 0.00 | 0.00 | 61 | 1016.6 |
| 20260902190003 | 16 | 179 | 6.4 | 16.1 | 0.00 | 0.00 | 0.00 | 61 | 1016.8 |
| 20260902185403 | 16 | 223 | 6.4 | 16.1 | 0.00 | 0.00 | 0.00 | 58 | 1016.8 |
| 20260902184803 | 16 | 221 | 4.8 | 11.3 | 0.00 | 0.00 | 0.00 | 60 | 1016.7 |
| 20260902184203 | 16 | 178 | 4.8 | 11.3 | 0.00 | 0.00 | 0.00 | 60 | 1016.6 |
| 20260902183603 | 16 | 190 | 4.8 | 11.3 | 0.00 | 0.00 | 0.00 | 61 | 1016.6 |
| 20260902183003 | 16 | 217 | 3.2 | 14.5 | 0.00 | 0.00 | 0.00 | 63 | 1016.6 |
| 20260902182403 | 16 | 169 | 3.2 | 11.3 | 0.00 | 0.00 | 0.00 | 63 | 1016.6 |
| 20260902181803 | 16 | 183 | 4.8 | 12.9 | 0.00 | 0.00 | 0.00 | 62 | 1016.5 |
| 20260902181203 | 16 | 190 | 6.4 | 16.1 | 0.00 | 0.00 | 0.00 | 63 | 1016.6 |
| 20260902180603 | 16 | 201 | 4.8 | 16.1 | 0.00 | 0.00 | 0.00 | 63 | 1016.6 |
| 20260902180218 | 15 | 223 | 3.2 | 12.9 | 0.00 | 0.00 | 0.00 | 64 | 1016.5 |
| 20260902175403 | 15 | 210 | 4.8 | 14.5 | 0.00 | 0.00 | 0.00 | 65 | 1016.8 |
| 20260902175017 | 15 | 199 | 4.8 | 14.5 | 0.00 | 0.00 | 0.00 | 66 | 1016.8 |
| 20260902174203 | 15 | 185 | 4.8 | 14.5 | 0.00 | 0.00 | 0.00 | 66 | 1016.7 |
| 20260902173603 | 15 | 200 | 1.6 | 9.7 | 0.00 | 0.00 | 0.00 | 66 | 1016.7 |
| 20260902173218 | 15 | 188 | 3.2 | 11.3 | 0.00 | 0.00 | 0.00 | 65 | 1016.7 |
| 20260902172403 | 15 | 192 | 3.2 | 11.3 | 0.00 | 0.00 | 0.00 | 66 | 1016.4 |
| 20260902171803 | 15 | 197 | 1.6 | 9.7 | 0.00 | 0.00 | 0.00 | 66 | 1016.5 |
| 20260902171203 | 15 | 202 | 3.2 | 12.9 | 0.00 | 0.00 | 0.00 | 66 | 1016.5 |
| 20260902170603 | 14 | 217 | 3.2 | 12.9 | 0.00 | 0.00 | 0.00 | 68 | 1016.7 |
| 20260902170003 | 14 | 205 | 1.6 | 9.7 | 0.00 | 0.00 | 0.00 | 68 | 1016.4 |
| 20260902165403 | 14 | 169 | 3.2 | 9.7 | 0.00 | 0.00 | 0.00 | 68 | 1016.3 |
| 20260902164803 | 13 | 157 | 1.6 | 11.3 | 0.00 | 0.00 | 0.00 | 69 | 1016.4 |
| 20260902164203 | 13 | 144 | 3.2 | 11.3 | 0.00 | 0.00 | 0.00 | 70 | 1016.3 |
| 20260902163603 | 13 | 129 | 1.6 | 9.7 | 0.00 | 0.00 | 0.00 | 70 | 1016.3 |
| 20260902163003 | 13 | 127 | 0.0 | 3.2 | 0.00 | 0.00 | 0.00 | 72 | 1016.3 |
| 20260902162617 | 13 | 127 | 1.6 | 9.7 | 0.00 | 0.00 | 0.00 | 71 | 1016.3 |
| 20260902161803 | 13 | 127 | 3.2 | 9.7 | 0.00 | 0.00 | 0.00 | 72 | 1016.4 |
| 20260902161418 | 13 | 127 | 3.2 | 9.7 | 0.00 | 0.00 | 0.00 | 74 | 1016.4 |
| 20260902160817 | 12 | 127 | 3.2 | 9.7 | 0.00 | 0.00 | 0.00 | 74 | 1016.6 |
| 20260902160005 | 12 | 127 | 1.6 | 9.7 | 0.00 | 0.00 | 0.00 | 74 | 1016.2 |
| 20260902155403 | 12 | 126 | 3.2 | 9.7 | 0.00 | 0.00 | 0.00 | 76 | 1016.4 |
| 20260902154804 | 12 | 126 | 3.2 | 9.7 | 0.00 | 0.00 | 0.00 | 77 | 1016.3 |
| 20260902154203 | 12 | 126 | 3.2 | 8.0 | 0.00 | 0.00 | 0.00 | 78 | 1016.3 |
| 20260902153603 | 11 | 126 | 3.2 | 9.7 | 0.00 | 0.00 | 0.00 | 78 | 1016.3 |
| 20260902153003 | 11 | 127 | 3.2 | 11.3 | 0.00 | 0.00 | 0.00 | 79 | 1016.3 |
| 20260902152403 | 11 | 125 | 4.8 | 11.3 | 0.00 | 0.00 | 0.00 | 79 | 1016.2 |
| 20260902151803 | 11 | 125 | 4.8 | 11.3 | 0.00 | 0.00 | 0.00 | 80 | 1016.2 |
| 20260902151203 | 11 | 126 | 3.2 | 11.3 | 0.00 | 0.00 | 0.00 | 80 | 1016.2 |
| 20260902150603 | 11 | 128 | 3.2 | 9.7 | 0.00 | 0.00 | 0.00 | 80 | 1016.4 |
| 20260902150003 | 11 | 130 | 4.8 | 9.7 | 0.00 | 0.00 | 0.00 | 81 | 1016.0 |
| 20260902145403 | 11 | 133 | 4.8 | 11.3 | 0.00 | 0.00 | 0.00 | 81 | 1015.9 |
| 20260902144803 | 11 | 138 | 4.8 | 14.5 | 0.00 | 0.00 | 0.00 | 81 | 1016.0 |
| 20260902144203 | 11 | 141 | 4.8 | 14.5 | 0.00 | 0.00 | 0.00 | 81 | 1015.9 |
| 20260902143603 | 10 | 142 | 3.2 | 11.3 | 0.00 | 0.00 | 0.00 | 81 | 1015.9 |
| 20260902143003 | 10 | 143 | 3.2 | 8.0 | 0.00 | 0.00 | 0.00 | 83 | 1016.1 |
| 20260902142403 | 10 | 143 | 1.6 | 8.0 | 0.00 | 0.00 | 0.00 | 83 | 1016.1 |
| 20260902141803 | 10 | 143 | 1.6 | 8.0 | 0.00 | 0.00 | 0.00 | 84 | 1016.1 |
| 20260902141203 | 10 | 143 | 1.6 | 6.4 | 0.00 | 0.00 | 0.00 | 84 | 1016.1 |
| 20260902140603 | 10 | 143 | 3.2 | 8.0 | 0.00 | 0.00 | 0.00 | 84 | 1016.1 |
| 20260902140003 | 10 | 143 | 1.6 | 8.0 | 0.00 | 0.00 | 0.00 | 85 | 1015.6 |
| 20260902135618 | 10 | 143 | 1.6 | 8.0 | 0.00 | 0.00 | 0.00 | 85 | 1015.6 |
| 20260902134803 | 10 | 143 | 3.2 | 8.0 | 0.00 | 0.00 | 0.00 | 85 | 1015.6 |
| 20260902134203 | 10 | 145 | 3.2 | 11.3 | 0.00 | 0.00 | 0.00 | 85 | 1015.5 |
| 20260902133603 | 10 | 148 | 3.2 | 11.3 | 0.00 | 0.00 | 0.00 | 85 | 1015.4 |
| 20260902133003 | 10 | 148 | 3.2 | 9.7 | 0.00 | 0.00 | 0.00 | 85 | 1015.2 |
| 20260902132618 | 10 | 148 | 3.2 | 9.7 | 0.00 | 0.00 | 0.00 | 84 | 1015.2 |
| 20260902132017 | 10 | 148 | 3.2 | 9.7 | 0.00 | 0.00 | 0.00 | 84 | 1015.2 |
| 20260902131203 | 10 | 148 | 1.6 | 8.0 | 0.00 | 0.00 | 0.00 | 84 | 1015.1 |
| 20260902130604 | 10 | 148 | 1.6 | 8.0 | 0.00 | 0.00 | 0.00 | 84 | 1015.0 |
| 20260902130003 | 10 | 148 | 3.2 | 11.3 | 0.00 | 0.00 | 0.00 | 84 | 1014.7 |
| 20260902125617 | 10 | 148 | 3.2 | 11.3 | 0.00 | 0.00 | 0.00 | 84 | 1014.7 |
| 20260902124803 | 10 | 148 | 3.2 | 8.0 | 0.00 | 0.00 | 0.00 | 84 | 1014.8 |
| 20260902124203 | 10 | 148 | 3.2 | 8.0 | 0.00 | 0.00 | 0.00 | 84 | 1014.9 |
| 20260902123818 | 10 | 148 | 3.2 | 9.7 | 0.00 | 0.00 | 0.00 | 84 | 1014.8 |
| 20260902123003 | 10 | 147 | 3.2 | 9.7 | 0.00 | 0.00 | 0.00 | 84 | 1014.9 |
| 20260902122404 | 10 | 147 | 3.2 | 8.0 | 0.00 | 0.00 | 0.00 | 84 | 1014.9 |
| 20260902121803 | 10 | 147 | 1.6 | 8.0 | 0.00 | 0.00 | 0.00 | 84 | 1014.8 |
| 20260902121418 | 10 | 147 | 1.6 | 8.0 | 0.00 | 0.00 | 0.00 | 84 | 1014.8 |
| 20260902120603 | 10 | 147 | 1.6 | 6.4 | 0.00 | 0.00 | 0.00 | 84 | 1014.7 |
| 20260902120004 | 10 | 147 | 1.6 | 9.7 | 0.00 | 0.00 | 0.00 | 85 | 1014.5 |
| 20260902115403 | 10 | 146 | 3.2 | 8.0 | 0.00 | 0.00 | 0.00 | 85 | 1014.6 |
| 20260902114803 | 10 | 144 | 4.8 | 9.7 | 0.00 | 0.00 | 0.00 | 85 | 1014.6 |
| 20260902114203 | 10 | 143 | 4.8 | 9.7 | 0.00 | 0.00 | 0.00 | 85 | 1014.5 |
| 20260902113603 | 10 | 142 | 4.8 | 11.3 | 0.00 | 0.00 | 0.00 | 85 | 1014.6 |
| 20260902113003 | 10 | 141 | 6.4 | 14.5 | 0.00 | 0.00 | 0.00 | 85 | 1014.4 |
| 20260902112617 | 10 | 143 | 6.4 | 14.5 | 0.00 | 0.00 | 0.00 | 85 | 1014.5 |
| 20260902111803 | 10 | 146 | 4.8 | 9.7 | 0.00 | 0.00 | 0.00 | 85 | 1014.5 |
| 20260902111203 | 10 | 146 | 3.2 | 9.7 | 0.00 | 0.00 | 0.00 | 85 | 1014.6 |
| 20260902110603 | 10 | 148 | 3.2 | 9.7 | 0.00 | 0.00 | 0.00 | 85 | 1014.6 |
| 20260902110217 | 10 | 151 | 3.2 | 9.7 | 0.00 | 0.00 | 0.00 | 85 | 1014.6 |
| 20260902105617 | 10 | 160 | 3.2 | 11.3 | 0.00 | 0.00 | 0.00 | 84 | 1014.6 |
| 20260902104803 | 10 | 161 | 3.2 | 9.7 | 0.00 | 0.00 | 0.00 | 84 | 1014.6 |
| 20260902104203 | 10 | 161 | 4.8 | 11.3 | 0.00 | 0.00 | 0.00 | 84 | 1014.6 |
| 20260902103603 | 10 | 160 | 4.8 | 11.3 | 0.00 | 0.00 | 0.00 | 84 | 1014.6 |
| 20260902103003 | 10 | 158 | 4.8 | 11.3 | 0.00 | 0.00 | 0.00 | 84 | 1014.7 |
| 20260902102403 | 10 | 156 | 3.2 | 9.7 | 0.00 | 0.00 | 0.00 | 83 | 1014.7 |
| 20260902101803 | 10 | 154 | 4.8 | 9.7 | 0.00 | 0.00 | 0.00 | 83 | 1014.7 |
| 20260902101203 | 10 | 152 | 4.8 | 11.3 | 0.00 | 0.00 | 0.00 | 83 | 1014.7 |
| 20260902100603 | 10 | 156 | 4.8 | 11.3 | 0.00 | 0.00 | 0.00 | 83 | 1014.7 |
| 20260902100003 | 10 | 157 | 3.2 | 9.7 | 0.00 | 0.00 | 0.00 | 82 | 1014.7 |
| 20260902095403 | 11 | 156 | 3.2 | 11.3 | 0.00 | 0.00 | 0.00 | 81 | 1014.7 |
| 20260902094803 | 11 | 154 | 1.6 | 8.0 | 0.00 | 0.00 | 0.00 | 80 | 1014.7 |
| 20260902094417 | 11 | 154 | 1.6 | 6.4 | 0.00 | 0.00 | 0.00 | 80 | 1014.8 |
| 20260902093603 | 11 | 154 | 0.0 | 6.4 | 0.00 | 0.00 | 0.00 | 79 | 1014.8 |
| 20260902093003 | 11 | 154 | 1.6 | 6.4 | 0.00 | 0.00 | 0.00 | 79 | 1014.8 |
| 20260902092404 | 11 | 154 | 1.6 | 8.0 | 0.00 | 0.00 | 0.00 | 79 | 1014.7 |
| 20260902091803 | 11 | 156 | 3.2 | 11.3 | 0.00 | 0.00 | 0.00 | 79 | 1014.7 |
| 20260902091203 | 11 | 157 | 4.8 | 14.5 | 0.00 | 0.00 | 0.00 | 79 | 1014.6 |
| 20260902090603 | 11 | 158 | 4.8 | 14.5 | 0.00 | 0.00 | 0.00 | 79 | 1014.4 |
| 20260902090004 | 11 | 152 | 6.4 | 19.3 | 0.00 | 0.00 | 0.00 | 79 | 1014.6 |
| 20260902085403 | 11 | 152 | 8.0 | 19.3 | 0.00 | 0.00 | 0.00 | 79 | 1014.6 |
| 20260902084803 | 11 | 159 | 6.4 | 19.3 | 0.00 | 0.00 | 0.00 | 79 | 1014.6 |
| 20260902084203 | 11 | 161 | 4.8 | 19.3 | 0.00 | 0.00 | 0.00 | 79 | 1014.6 |
| 20260902083603 | 11 | 156 | 4.8 | 20.9 | 0.00 | 0.00 | 0.00 | 79 | 1014.7 |
| 20260902083003 | 11 | 151 | 8.0 | 19.3 | 0.00 | 0.00 | 0.00 | 79 | 1014.5 |
| 20260902082618 | 11 | 150 | 8.0 | 20.9 | 0.00 | 0.00 | 0.00 | 79 | 1014.5 |
| 20260902081803 | 11 | 153 | 6.4 | 19.3 | 0.00 | 0.00 | 0.00 | 79 | 1014.5 |
| 20260902081203 | 11 | 146 | 6.4 | 19.3 | 0.00 | 0.00 | 0.00 | 79 | 1014.6 |
| 20260902080603 | 11 | 144 | 8.0 | 19.3 | 0.00 | 0.00 | 0.00 | 79 | 1014.4 |
| 20260902080218 | 11 | 150 | 8.0 | 20.9 | 0.00 | 0.00 | 0.00 | 79 | 1014.5 |
| 20260902075403 | 11 | 152 | 9.7 | 22.5 | 0.00 | 0.00 | 0.00 | 79 | 1014.8 |
| 20260902074804 | 11 | 151 | 9.7 | 19.3 | 0.00 | 0.00 | 0.00 | 79 | 1014.7 |
| 20260902074417 | 11 | 147 | 8.0 | 19.3 | 0.00 | 0.00 | 0.00 | 79 | 1014.6 |
| 20260902073603 | 11 | 142 | 6.4 | 19.3 | 0.00 | 0.00 | 0.00 | 79 | 1014.6 |
| 20260902073003 | 11 | 144 | 6.4 | 20.9 | 0.00 | 0.00 | 0.00 | 79 | 1014.7 |
| 20260902072617 | 11 | 143 | 8.0 | 20.9 | 0.00 | 0.00 | 0.00 | 79 | 1014.5 |
| 20260902072017 | 11 | 142 | 8.0 | 20.9 | 0.00 | 0.00 | 0.00 | 79 | 1014.3 |
| 20260902071203 | 11 | 147 | 8.0 | 16.1 | 0.00 | 0.00 | 0.00 | 78 | 1014.4 |
| 20260902070603 | 11 | 155 | 8.0 | 11.3 | 0.00 | 0.00 | 0.00 | 78 | 1014.6 |
| 20260902070005 | 11 | 158 | 6.4 | 14.5 | 0.00 | 0.00 | 0.00 | 78 | 1015.0 |
| 20260902065403 | 11 | 157 | 4.8 | 11.3 | 0.00 | 0.00 | 0.00 | 77 | 1015.0 |
| 20260902064803 | 12 | 161 | 4.8 | 11.3 | 0.00 | 0.00 | 0.00 | 77 | 1014.8 |
| 20260902064418 | 12 | 162 | 4.8 | 11.3 | 0.00 | 0.00 | 0.00 | 77 | 1014.9 |
| 20260902063603 | 12 | 163 | 3.2 | 8.0 | 0.00 | 0.00 | 0.00 | 77 | 1015.0 |
| 20260902063003 | 12 | 163 | 1.6 | 8.0 | 0.00 | 0.00 | 0.00 | 77 | 1015.0 |